CZ-2D DEB, 38299

Orbit data source: Space-Track

CZ-2D DEB, 38299 is space debris in SSO originally from a launch on Tue, 15 Jun 2010 UTC launched from the Jiuquan Satellite Launch Center, China (JSC). Debris objects in space refer to the collection of defunct objects orbiting the Earth. Examples of debris include non-operational satellites, rocket bodies, and fragments generated from explosions, collisions, or faulty payload assembly.

Loading next visibility...
Identifier
38299, 2010-027D
Orbit
SSO
Country
Flag of CNCN / PRC
Related business
Manufacturer
Unknown
Mission
Spacecraft
Bus & Motor
Unknown
Mass
Unknown
Launch date (UTC)
2010-06-15 (16 years ago)
Launch vehicle
Unknown
Launch site
Jiuquan Satellite Launch Center, China (JSC)
Object type
Payload
Rocket body
Debris
Shape & HBR
Unknown shape, 0.1 m
Radar Cross Section
Small (<0.1 m²)

Expand to show TLE details & history
Last TLE update: 3 days ago

TLE from 3 days ago
0 CZ-2D DEB
1 38299U 10027D   26169.36202262  .00039876  00000-0  11903-2 0  9997
2 38299  97.6488  36.5923 0050916 343.2738  16.6822 15.33209895851233
Epoch: 2026-06-18T08:41Z
TLE epoch observation values (Epoch: 2026-06-18T08:41:18.754Z)
Latitude
-0.00001°
Longitude
-0.34228°
Altitude
435.969 km
Speed
7.669 km/s
True Right ascension
02h 26m 22s
True Declination
0° 00' 00"
Sunlit
Object was in daylight at epoch
Visualization orbit readout
Latitude
Unknown
Longitude
Unknown
Altitude
Unknown
Speed
Unknown
Apparent Right ascension
Unknown
Apparent Declination
Unknown
Sunlit
N/A
Visualization observer readout
Local Sidereal Time
11:23:39
Azimuth
Unknown
Elevation
Unknown
Doppler factor
Unknown
Orbital elements
Apogee altitude
498.035 km
Perigee altitude
428.368 km
Semi-major axis
6,841.339 km
Eccentricity
0.00509
Inclination
97.6488°
RAAN
36.5923°
Arg. of periapsis
343.2738°
True anomaly
16.85072°
Mean anomaly
16.6822°
Eccentric anomaly
16.76635°
Mean motion
3.83558 °/min
Orbital period
93.86 mins
BSTAR
0.0011903
Loading maneuver chart data...
Computing Atmospheric mass density...
Loading historical data...
Loading historical data...
Loading historical data...
Loading historical data...
Loading historical data...
Loading historical data...
Loading historical data...

Documentation

Showing up to 5 results
|